Weather History for Klawock, AK

Change the Weather History Date:

Thursday, February 23, 2012

  Actual Average Record
Temperature  
Mean Temperature 34 °F -  
Max Temperature 37 °F 40 °F 48 °F (2009)
Min Temperature 30 °F 30 °F 19 °F (2006)
Degree Days  
Heating Degree Days 32    
Moisture  
Dew Point 31 °F    
Average Humidity 94    
Maximum Humidity 100    
Minimum Humidity 76    
Precipitation  
Precipitation 0.15 in - - ()
Sea Level Pressure  
Sea Level Pressure 30.24 in    
Wind  
Wind Speed 3 mph (SE)    
Max Wind Speed 10 mph    
Max Gust Speed -    
Visibility 7 miles    
Events Fog , Snow    
Averages and records for this station are not official NWS values.
T = Trace of Precipitation, MM = Missing Value Source: NWS Daily Summary

Daily Weather History Graph

Daily Weather History Graph

Search for Another Location

Airport:

Trip Planner

Search our weather history database for the weather conditions in past years. The results will help you decide how hot, cold, wet, or windy it might be!

Date:

Astronomy

Feb. 23, 2012 Rise Set
Actual Time 6:58 AM AKST 5:13 PM AKST
Civil Twilight 6:21 AM AKST 5:51 PM AKST
Nautical Twilight 5:38 AM AKST 6:34 PM AKST
Astronomical Twilight 4:55 AM AKST 7:16 PM AKST
Moon 6:59 AM AKST (2/23) 8:01 PM AKST (2/23)
Length of Visible Light 11h 30m
Length of Day
10h 15m
Waxing Crescent, 4% of the Moon is Illuminated
Feb 23
Waxing Crescent
Feb 29
First Quarter
Mar 8
Full
Mar 14
Last Quarter
Mar 22
New

Hourly Weather History & Observations

Time (AKST) Temp. Windchill Dew Point Humidity Pressure Visibility Wind Dir Wind Speed Gust Speed Precip Events Conditions
12:46 AM 33.8 °F 30.8 °F 32.0 °F 93% 30.28 in 3.0 mi WSW 3.5 mph - 0.00 in Snow Light Snow
12:51 AM 33.8 °F 28.6 °F 32.0 °F 93% 30.28 in 2.0 mi SW 5.8 mph - 0.00 in Snow Light Snow
12:53 AM 33.1 °F 28.7 °F 32.0 °F 96% 30.28 in 2.0 mi SSW 4.6 mph - 0.00 in Snow Light Snow
1:04 AM 32.0 °F - 32.0 °F 100% 30.28 in 4.0 mi Calm Calm - 0.00 in Snow Light Snow
1:53 AM 33.1 °F 27.7 °F 30.9 °F 92% 30.29 in 9.0 mi SSW 5.8 mph - 0.00 in Snow Light Snow
3:00 AM 33.8 °F - 30.2 °F 87% 30.28 in 8.0 mi Calm Calm - 0.00 in Snow Light Snow
3:53 AM 30.9 °F - 30.0 °F 96% 30.28 in 9.0 mi Calm Calm - 0.00 in   Mostly Cloudy
4:53 AM 32.0 °F 28.7 °F 30.9 °F 96% 30.28 in 6.0 mi South 3.5 mph - 0.00 in Snow Light Snow
5:07 AM 32.0 °F - 30.2 °F 93% 30.27 in 10.0 mi Calm Calm - 0.00 in   Scattered Clouds
5:53 AM 32.0 °F - 30.0 °F 92% 30.27 in 10.0 mi Calm Calm - 0.00 in   Scattered Clouds
6:26 AM 32.0 °F 27.5 °F 32.0 °F 100% 30.29 in 1.8 mi West 4.6 mph - 0.00 in Snow Light Snow
6:32 AM 32.0 °F 28.7 °F 32.0 °F 100% 30.28 in 1.0 mi Variable 3.5 mph - 0.00 in Snow Light Snow
6:41 AM 32.0 °F 27.5 °F 30.2 °F 93% 30.28 in 1.5 mi SSE 4.6 mph - 0.00 in Snow Light Snow
6:45 AM 32.0 °F 28.7 °F 30.2 °F 93% 30.28 in 3.0 mi SSE 3.5 mph - 0.00 in Snow Light Snow
6:53 AM 32.0 °F 26.4 °F 30.9 °F 96% 30.28 in 9.0 mi SSE 5.8 mph - 0.00 in   Mostly Cloudy
7:53 AM 30.9 °F - 30.9 °F 100% 30.28 in 10.0 mi Calm Calm - N/A   Scattered Clouds
8:25 AM 32.0 °F - 30.2 °F 93% 30.28 in 10.0 mi Calm Calm - N/A   Scattered Clouds
8:53 AM 33.1 °F 30.0 °F 30.9 °F 92% 30.29 in 5.0 mi WNW 3.5 mph - 0.00 in Snow Light Snow
8:55 AM 33.8 °F 30.8 °F 32.0 °F 93% 30.29 in 2.5 mi WNW 3.5 mph - 0.00 in Snow Light Snow
8:57 AM 32.0 °F - 32.0 °F 100% 30.29 in 1.2 mi Calm Calm - 0.00 in Snow Light Snow
9:01 AM 32.0 °F - 32.0 °F 100% 30.29 in 0.8 mi Calm Calm - 0.00 in Snow Light Snow
9:10 AM 32.0 °F - 32.0 °F 100% 30.29 in 0.2 mi Calm Calm - 0.00 in Fog , Snow Heavy Snow
9:26 AM 32.0 °F 28.7 °F 32.0 °F 100% 30.28 in 1.0 mi South 3.5 mph - 0.00 in Snow Light Snow
9:30 AM 32.0 °F 28.7 °F 32.0 °F 100% 30.28 in 2.0 mi South 3.5 mph - 0.00 in Snow Light Snow
9:38 AM 32.0 °F 28.7 °F 32.0 °F 100% 30.28 in 7.0 mi Variable 3.5 mph - 0.00 in Snow Light Snow
9:53 AM 32.0 °F - 30.9 °F 96% 30.29 in 10.0 mi Calm Calm - 0.00 in   Overcast
10:24 AM 33.8 °F 30.8 °F 32.0 °F 93% 30.29 in 10.0 mi ENE 3.5 mph - N/A   Overcast
10:53 AM 35.1 °F - 33.1 °F 92% 30.29 in 10.0 mi Calm Calm - N/A   Scattered Clouds
11:39 AM 37.4 °F 33.8 °F 33.8 °F 87% 30.28 in 10.0 mi NNE 4.6 mph - 0.12 in   Partly Cloudy
11:53 AM 37.0 °F 33.3 °F 33.1 °F 86% 30.27 in 10.0 mi NNE 4.6 mph - 0.14 in   Clear
12:53 PM 37.0 °F 34.5 °F 33.1 °F 86% 30.26 in 10.0 mi NNE 3.5 mph - 0.01 in   Clear
1:53 PM 37.0 °F - 30.0 °F 76% 30.24 in 10.0 mi Calm Calm - N/A   Overcast
2:53 PM 37.0 °F - 34.0 °F 89% 30.22 in 10.0 mi Calm Calm - N/A   Partly Cloudy
3:53 PM 36.0 °F - 33.1 °F 89% 30.20 in 10.0 mi Calm Calm - N/A   Clear
4:53 PM 34.0 °F 31.0 °F 32.0 °F 92% 30.18 in 10.0 mi NNE 3.5 mph - N/A   Scattered Clouds
5:53 PM 33.1 °F - 32.0 °F 96% 30.17 in 10.0 mi Calm Calm - N/A   Scattered Clouds
6:53 PM 32.0 °F - 30.9 °F 96% 30.13 in 10.0 mi Calm Calm - N/A   Clear
7:53 PM 30.9 °F - 30.0 °F 96% 30.11 in 10.0 mi Calm Calm - N/A   Clear
8:53 PM 30.9 °F 25.2 °F 30.0 °F 96% 30.09 in 10.0 mi NNE 5.8 mph - N/A   Clear
9:53 PM 30.9 °F 26.2 °F 30.0 °F 96% 30.06 in 10.0 mi NNE 4.6 mph - N/A   Clear
10:53 PM 32.0 °F 26.4 °F 30.0 °F 92% 30.03 in 10.0 mi NNE 5.8 mph - N/A   Clear
11:53 PM 32.0 °F 23.6 °F 30.0 °F 92% 30.00 in 10.0 mi NNE 10.4 mph - N/A   Clear